Location: Unspecified
(35.2016°N, 0.0000°E)
Time: 10:33:17
(UTC+00:00)

Explorer 11/Cluster Stage 4 - Visible Passes

Search period start: 04 April 2026 00:00
Search period end: 14 April 2026 00:00
Orbit: 463 x 1175 km, 28.8° (Epoch: 29 March)

Date Brightness Start Highest point End Pass type
(mag) Time Alt. Az. Time Alt. Az. Time Alt. Az.
4 Apr 7.3 20:07:28 10° WSW 20:11:25 26° SSW 20:11:36 26° SSW visible
5 Apr 7.4 19:42:37 10° WSW 19:46:54 27° SSW 19:48:36 21° SSE visible
6 Apr 7.6 19:17:45 10° WSW 19:22:22 29° SSW 19:25:37 13° SE visible
7 Apr 7.7 18:52:49 10° WSW 18:57:47 30° SSW 19:01:57 10° SE visible
8 Apr 8.6 20:18:38 10° SW 20:19:46 11° SSW 20:20:53 10° SSW visible
9 Apr 8.7 19:53:21 10° SW 19:55:10 12° SSW 19:56:55 10° S visible
10 Apr 8.7 19:28:08 10° WSW 19:30:33 13° SSW 19:32:46 10° S visible
11 Apr 8.8 19:02:59 10° WSW 19:05:53 14° SSW 19:08:33 10° S visible
